Flag for Brazil

Past Weather in Manaus, Amazonas, Brazil — Yesterday and Last 2 Weeks

Now
81 °F

Clear.


Feels Like: 85 °F
Forecast: 88 / 77 °F
Wind: 2 mph from North

Location: Manaus Aeroporto

Current Time: Jul 10, 2020 at 12:41:58 am

Latest Report: Jul 10, 2020 at 12:00 am


Visibility: 10 mi

Pressure: 29.89 "Hg

Humidity: 79%

Dew Point: 73 °F

Location of ManausLocation

Past Weather in Manaus — Graph

°F

Manaus Temperature Yesterday

Maximum temperature yesterday: 90 °F (at 2:00 pm)
Minimum temperature yesterday: 77 °F (at 4:00 am)
Average temperature yesterday: 82 °F

High & Low Weather Summary for the Past Weeks

 TemperatureHumidityPressure
High90 °F (Jun 25, 12:00 pm)94% (Jun 27, 5:00 am)29.95 "Hg (Jun 27, 5:00 am)
Low73 °F (Jun 30, 7:00 am)59% (Jun 25, 3:00 pm)29.77 "Hg (Jun 27, 2:00 pm)
Average81 °F82%29.86 "Hg
* Reported Jun 24 11:00 pm — Jul 9 11:00 pm, Manaus. Weather by CustomWeather, © 2020

Note: Actual official high and low records may vary slightly from our data, if they occured in-between our weather recording intervals... More about our weather records

Manaus Weather History for the Previous 24 Hours

Scroll right to see more
 ConditionsComfort  
Time TempWeatherWind HumidityBarometerVisibility
11:00 pm
Thu, Jul 9
81 °FClear.3 mph79%29.89 "Hg10 mi
10:00 pm81 °FClear.2 mph79%29.89 "Hg10 mi
9:00 pm81 °FClear.2 mph79%29.89 "Hg10 mi
8:00 pm81 °FClear.3 mph79%29.86 "Hg10 mi
7:00 pm79 °FPassing clouds.3 mph84%29.86 "HgN/A
6:00 pm82 °FScattered clouds.2 mph74%29.83 "HgN/A
5:00 pm82 °FScattered clouds.2 mph74%29.83 "HgN/A
4:00 pm86 °FScattered showers. Scattered clouds.3 mph62%29.83 "HgN/A
3:00 pm88 °FScattered showers. Scattered clouds.8 mph70%29.83 "HgN/A
2:00 pm90 °FScattered showers. Scattered clouds.5 mph67%29.86 "HgN/A
1:00 pm88 °FScattered showers. Scattered clouds.5 mph66%29.89 "HgN/A
12:00 pm88 °FScattered clouds.3 mph70%29.92 "HgN/A
11:00 am86 °FScattered clouds.5 mph70%29.95 "HgN/A
10:00 am86 °FSunny.2 mph70%29.95 "Hg10 mi
9:00 am82 °FSunny.3 mph74%29.95 "Hg10 mi
8:00 am82 °FPassing clouds.2 mph84%29.95 "HgN/A
7:00 am79 °FPassing clouds.No wind89%29.92 "HgN/A
6:00 am77 °FPassing clouds.3 mph94%29.92 "HgN/A
5:00 am77 °FPassing clouds.3 mph94%29.89 "HgN/A
4:00 am77 °FClear.3 mph94%29.86 "Hg10 mi
3:00 am79 °FWarm.2 mph89%29.89 "HgN/A
2:00 am79 °FPassing clouds.3 mph94%29.89 "HgN/A
1:00 am79 °FPassing clouds.2 mph94%29.89 "HgN/A
12:00 am79 °FClear.2 mph89%29.92 "Hg10 mi
Weather by CustomWeather, © 2020

See weather overview